Back to catalog

THAICOM 2

AliveCommunicationsGEO
NORAD 23314·PAYLOAD·🇹🇭 Thailand

Launched Oct 8, 1994 from Guiana Space Centre

Loading…

TLE

FreshSource: Space-Track

Epoch: Sep 14, 2026, 12:06 UTC

1 23314U 94065B   26257.50434552  .00000070  00000-0  00000-0 0  9994
2 23314  11.6379  37.8108 0004631 187.5700 184.2222  0.99587100 47260

Track THAICOM 2 in real time with AllMySat

Download on the App Store